Mobile, AL

9:21 AM CDT on July 28, 2017 (GMT -0500)
Mobile Regional

Weather History for KMOB - February, 2013

Change the Weather History Date:

Monday, February 11, 2013

  Actual Average Record
Temperature  
Mean Temperature 63 °F 53 °F  
Max Temperature 70 °F 64 °F 80 °F (1887)
Min Temperature 56 °F 43 °F 24 °F (1973)
Degree Days  
Heating Degree Days 2 12  
Month to date heating degree days 77 145  
Since 1 July heating degree days 988 1266  
Cooling Degree Days 0 0  
Month to date cooling degree days 0 0  
Year to date cooling degree days 26 7  
Growing Degree Days 12 (Base 50)    
Moisture  
Dew Point 59 °F    
Average Humidity 92    
Maximum Humidity 100    
Minimum Humidity 84    
Precipitation  
Precipitation 0.37 in 0.18 in 4.00 in (1905)
Month to date precipitation 3.22 2.00  
Year to date precipitation 6.09 7.65  
Snow  
Snow 0.00 in 0.00 in - ()
Month to date snowfall 0.0 0.0  
Since 1 July snowfall 0.0 T  
Snow Depth 0.00 in    
Sea Level Pressure  
Sea Level Pressure 30.07 in    
Wind  
Wind Speed 9 mph (NNE)    
Max Wind Speed 20 mph    
Max Gust Speed 25 mph    
Visibility 5 miles    
Events Fog , Rain , Thunderstorm    
T = Trace of Precipitation, MM = Missing Value Source: NWS Daily Summary

Daily Weather History Graph

Daily Weather History Graph

Search for Another Location

Airport or City:

Trip Planner

Search our weather history database for the weather conditions in past years. The results will help you decide how hot, cold, wet, or windy it might be!

Date:

Astronomy

Feb. 11, 2013 Rise Set
Actual Time 6:36 AM CST 5:37 PM CST
Civil Twilight 6:12 AM CST 6:02 PM CST
Nautical Twilight 5:43 AM CST 6:31 PM CST
Astronomical Twilight 5:15 AM CST 6:59 PM CST
Moon 7:11 AM CST (2/11) 7:22 PM CST (2/11)
Length of Visible Light 11h 50m
Length of Day
11h 01m
Waxing Crescent, 3% of the Moon is Illuminated
Feb 11
Waxing Crescent
Feb 17
First Quarter
Feb 25
Full
Mar 4
Last Quarter
Mar 11
New

Hourly Weather History & Observations

Time (CST) Temp. Dew Point Humidity Pressure Visibility Wind Dir Wind Speed Gust Speed Precip Events Conditions
12:03 AM 69.8 °F 66.2 °F 88% 30.04 in 9.0 mi SSW 13.8 mph - N/A   Mostly Cloudy
12:56 AM 70.0 °F 66.9 °F 90% 30.03 in 8.0 mi SSW 9.2 mph - N/A   Mostly Cloudy
1:56 AM 69.1 °F 66.9 °F 93% 30.01 in 6.0 mi SSW 10.4 mph - N/A   Mostly Cloudy
2:56 AM 69.1 °F 66.9 °F 93% 30.03 in 7.0 mi WSW 4.6 mph - N/A   Overcast
3:12 AM 69.8 °F 66.2 °F 88% 30.04 in 7.0 mi WSW 3.5 mph - N/A   Overcast
3:24 AM 69.8 °F 66.2 °F 88% 30.04 in 6.0 mi WSW 3.5 mph - N/A   Overcast
3:47 AM 68.0 °F 66.2 °F 94% 30.03 in 6.0 mi SW 4.6 mph - N/A   Scattered Clouds
3:56 AM 68.0 °F 66.0 °F 93% 30.02 in 5.0 mi SSW 4.6 mph - N/A   Scattered Clouds
4:33 AM 66.2 °F 64.4 °F 94% 30.01 in 4.0 mi South 3.5 mph - N/A   Mostly Cloudy
4:38 AM 66.2 °F 64.4 °F 94% 30.01 in 2.5 mi SSE 4.6 mph - N/A   Mostly Cloudy
4:43 AM 66.2 °F 64.4 °F 94% 30.01 in 0.8 mi SSE 4.6 mph - N/A   Mostly Cloudy
4:51 AM 66.2 °F 64.4 °F 94% 30.01 in 0.5 mi SSE 4.6 mph - N/A Fog Fog
4:56 AM 66.0 °F 64.9 °F 96% 30.00 in 0.5 mi SSE 4.6 mph - N/A Fog Fog
5:10 AM 66.2 °F 66.2 °F 100% 30.02 in 0.2 mi Calm Calm - N/A Fog Fog
5:30 AM 66.2 °F 66.2 °F 100% 30.03 in 0.5 mi South 3.5 mph - N/A Fog Fog
5:56 AM 66.9 °F 66.0 °F 97% 30.03 in 0.2 mi Calm Calm - N/A Fog Fog
6:56 AM 66.9 °F 66.0 °F 97% 30.06 in 0.2 mi Calm Calm - N/A Fog Fog
7:23 AM 68.0 °F 66.2 °F 94% 30.07 in 0.5 mi Calm Calm - N/A Fog Fog
7:41 AM 68.0 °F 66.2 °F 94% 30.08 in 1.0 mi West 3.5 mph - N/A   Overcast
7:56 AM 69.1 °F 66.9 °F 93% 30.07 in 1.0 mi SW 4.6 mph - N/A   Overcast
8:32 AM 68.0 °F 66.2 °F 94% 30.09 in 2.0 mi Calm Calm - 0.01 in Rain Light Rain
8:51 AM 64.4 °F 62.6 °F 94% 30.11 in 3.0 mi NNW 11.5 mph 19.6 mph 0.01 in   Overcast
8:56 AM 64.0 °F 62.1 °F 93% 30.11 in 3.0 mi NNW 13.8 mph 19.6 mph 0.01 in   Overcast
9:23 AM 62.6 °F 59.0 °F 88% 30.13 in 3.0 mi North 13.8 mph - 0.00 in   Overcast
9:56 AM 63.0 °F 57.9 °F 84% 30.12 in 3.0 mi North 12.7 mph - 0.00 in   Haze
10:05 AM 62.6 °F 57.2 °F 82% 30.12 in 7.0 mi North 15.0 mph 23.0 mph N/A   Mostly Cloudy
10:56 AM 63.0 °F 55.9 °F 78% 30.13 in 7.0 mi North 16.1 mph 19.6 mph 0.00 in Rain Light Rain
11:05 AM 62.6 °F 55.4 °F 77% 30.13 in 7.0 mi North 15.0 mph - 0.00 in Rain Light Rain
11:56 AM 62.1 °F 55.9 °F 80% 30.10 in 7.0 mi North 13.8 mph - 0.01 in   Overcast
12:56 PM 60.1 °F 55.9 °F 86% 30.11 in 4.0 mi West 4.6 mph - 0.01 in Rain , Thunderstorm Light Thunderstorms and Rain
1:08 PM 60.8 °F 55.4 °F 82% 30.12 in 5.0 mi NNE 11.5 mph - 0.01 in Rain Light Rain
1:29 PM 59.0 °F 55.4 °F 88% 30.10 in 2.5 mi NNE 9.2 mph - 0.02 in Rain Rain
1:38 PM 59.0 °F 55.4 °F 88% 30.10 in 3.0 mi NNE 8.1 mph - 0.03 in Rain Light Rain
1:56 PM 57.9 °F 55.0 °F 90% 30.09 in 6.0 mi NE 10.4 mph - 0.04 in   Overcast
2:41 PM 57.2 °F 55.4 °F 94% 30.09 in 6.0 mi NNE 13.8 mph - 0.00 in   Overcast
2:56 PM 57.9 °F 55.0 °F 90% 30.08 in 6.0 mi NNE 16.1 mph 20.7 mph 0.00 in   Overcast
3:10 PM 57.2 °F 55.4 °F 94% 30.08 in 3.0 mi NE 15.0 mph 21.9 mph 0.07 in Rain Light Rain
3:56 PM 57.9 °F 55.0 °F 90% 30.06 in 6.0 mi NE 12.7 mph - 0.13 in Rain Light Rain
4:56 PM 57.9 °F 55.0 °F 90% 30.05 in 6.0 mi ENE 11.5 mph - 0.00 in   Overcast
5:56 PM 57.9 °F 54.0 °F 87% 30.07 in 7.0 mi ENE 13.8 mph 19.6 mph 0.01 in Rain Light Rain
6:09 PM 57.2 °F 53.6 °F 88% 30.07 in 10.0 mi ENE 11.5 mph 21.9 mph 0.00 in   Overcast
6:51 PM 57.2 °F 53.6 °F 88% 30.09 in 10.0 mi North 8.1 mph 18.4 mph 0.00 in   Overcast
6:56 PM 57.0 °F 54.0 °F 89% 30.10 in 10.0 mi NNW 5.8 mph - 0.00 in   Overcast
7:33 PM 57.2 °F 53.6 °F 88% 30.08 in 8.0 mi ENE 10.4 mph - 0.00 in   Overcast
7:56 PM 57.0 °F 54.0 °F 89% 30.07 in 8.0 mi East 12.7 mph - 0.00 in   Overcast
8:10 PM 57.2 °F 53.6 °F 88% 30.08 in 8.0 mi ENE 8.1 mph - N/A   Overcast
8:56 PM 57.0 °F 54.0 °F 89% 30.09 in 8.0 mi NNE 6.9 mph - 0.02 in Rain Rain
9:56 PM 55.9 °F 54.0 °F 93% 30.06 in 8.0 mi NE 11.5 mph - 0.01 in   Overcast
10:23 PM 55.4 °F 53.6 °F 94% 30.07 in 8.0 mi NE 8.1 mph - N/A   Overcast
10:51 PM 55.4 °F 53.6 °F 94% 30.07 in 7.0 mi NNE 9.2 mph - 0.00 in Rain Light Rain
10:56 PM 55.9 °F 54.0 °F 93% 30.07 in 7.0 mi North 6.9 mph - 0.01 in Rain Light Rain
11:06 PM 55.4 °F 53.6 °F 94% 30.08 in 3.0 mi North 9.2 mph - 0.03 in Rain Heavy Rain
11:13 PM 55.4 °F 53.6 °F 94% 30.08 in 2.5 mi North 10.4 mph - 0.07 in Rain Heavy Rain
11:21 PM 55.4 °F 53.6 °F 94% 30.08 in 4.0 mi North 10.4 mph - 0.11 in Rain Rain
11:33 PM 55.4 °F 53.6 °F 94% 30.07 in 6.0 mi NNE 11.5 mph - 0.12 in Rain Light Rain
11:56 PM 55.9 °F 54.0 °F 93% 30.06 in 10.0 mi NNE 10.4 mph - 0.12 in   Overcast